Wind_Speed
28 29 29 30 30 31 31 31 31 31 30 30 29 29 29 29 29 29 30 30 31 31 31 31 32 33 34 35 36 37 37 37 37 39 41 45 46 45 42 39 38 37 38 38 39 39 39 38 37 36 35 32 30 29 28 28 28 29 29 29 30 30 29 30 31 32 31 31 34 35 37 39 41 42 44 45 45 46 48 50 51 52 51 49 47
27 28 29 30 31 31 32 32 32 32 31 31 30 30 30 30 30 30 31 31 31 31 31 32 33 34 35 36 36 37 37 37 38 41 44 47 47 44 41 39 38 37 37 37 37 37 37 36 35 33 31 29 27 27 26 26 27 27 27 27 27 28 28 28 29 31 31 31 33 35 37 39 41 43 45 47 47 48 49 51 53 54 54 52 50
27 29 30 31 32 33 33 34 34 34 33 32 31 31 31 31 31 32 32 32 32 32 32 33 34 35 36 36 37 37 37 39 40 43 46 48 46 43 40 38 37 37 37 36 36 36 35 35 33 31 28 27 25 25 25 25 25 25 26 26 26 27 27 28 29 30 32 32 34 36 38 39 42 43 45 48 49 50 51 52 55 56 56 55 54
28 29 30 31 33 34 35 35 35 35 34 33 33 32 32 32 33 33 33 32 32 32 33 34 35 36 36 36 37 37 38 40 41 43 46 48 46 42 39 37 36 36 35 35 35 34 34 33 31 28 26 25 24 24 24 24 24 25 25 25 26 26 27 28 29 31 33 34 35 37 39 41 42 44 46 48 50 51 52 54 56 57 58 58 57
28 29 31 32 34 35 36 36 36 36 35 35 34 34 34 34 34 34 34 33 33 34 35 36 37 37 36 36 36 37 38 40 40 42 46 47 44 41 38 36 36 35 34 34 34 33 33 31 28 26 25 24 23 23 24 24 24 25 25 26 26 27 28 29 30 32 34 36 37 38 40 42 43 45 47 49 51 53 54 55 56 58 60 60 60
28 29 31 33 34 35 37 37 37 37 37 36 35 35 35 35 35 35 34 34 34 35 36 38 38 37 36 36 37 37 39 39 40 43 46 46 43 39 37 35 34 33 33 33 33 32 31 29 27 25 24 24 24 24 24 24 25 26 26 27 28 29 30 31 32 34 35 37 38 40 41 43 45 47 49 50 53 55 56 56 57 59 61 61 61
27 29 31 33 35 36 37 38 38 38 38 38 37 37 36 37 37 36 36 35 36 37 38 39 39 37 36 36 37 38 38 39 41 44 44 44 41 38 35 34 33 32 32 32 32 31 29 28 27 25 24 24 24 25 25 25 26 27 28 29 30 31 31 32 33 35 37 38 40 41 42 44 46 48 50 51 53 56 58 59 59 60 62 62 62
28 29 31 33 34 36 37 38 39 40 40 40 39 39 38 38 38 38 37 37 37 39 40 41 40 38 37 37 37 37 37 39 41 43 42 41 39 36 34 33 32 31 32 32 31 30 29 28 28 26 26 25 26 26 27 27 28 29 30 31 32 32 33 34 35 36 38 39 40 42 43 45 47 48 50 52 54 55 58 61 62 62 63 63 62
29 30 31 32 33 35 37 38 40 41 41 41 41 40 40 39 39 39 39 38 39 41 42 42 40 38 38 38 37 36 37 39 41 42 41 39 37 35 33 32 31 31 31 31 30 30 29 29 29 28 27 28 28 28 28 29 30 30 31 32 33 34 35 36 37 38 40 41 41 42 43 45 47 49 51 53 56 57 58 61 62 63 64 64 62
30 30 31 31 32 34 36 38 40 41 42 42 42 42 41 41 41 41 40 40 41 42 43 42 41 39 39 38 37 37 37 39 41 41 40 38 36 34 32 31 31 30 30 30 30 30 30 30 30 30 30 30 30 30 31 31 32 32 33 34 35 36 37 37 38 40 41 42 43 43 44 46 48 50 52 54 56 58 59 60 61 62 63 64 61
31 31 30 30 31 33 35 37 39 41 43 43 44 43 42 43 42 42 42 42 43 44 43 43 41 40 40 39 38 38 38 39 41 41 39 37 35 33 31 30 30 30 30 31 31 31 32 32 32 31 32 32 33 33 33 33 34 34 35 36 37 38 39 39 40 41 42 43 44 44 45 46 48 50 52 54 56 57 58 59 61 61 62 63 62
32 31 30 29 31 32 35 37 39 41 43 43 44 43 43 44 44 43 44 43 44 44 43 42 42 42 42 40 38 38 38 40 41 40 38 36 34 32 31 30 30 30 31 31 32 32 33 33 33 33 34 35 35 35 35 35 36 36 37 38 39 40 40 40 41 42 44 45 45 45 46 47 49 51 53 55 56 57 57 58 59 60 60 61 60
32 31 30 30 32 34 36 39 40 41 42 43 44 44 45 45 44 44 44 45 45 45 44 43 43 43 42 40 38 38 39 40 41 39 37 36 33 32 31 31 31 31 32 32 32 33 34 34 35 35 35 36 36 37 37 37 38 38 39 40 41 41 41 41 42 43 44 45 45 45 47 48 50 51 53 55 56 56 57 57 58 58 58 59 58
31 31 32 33 35 37 39 40 41 41 42 43 44 45 45 45 45 45 46 46 46 45 44 44 44 42 41 39 38 39 40 40 40 39 37 35 32 32 32 32 32 32 33 33 33 34 35 35 36 36 36 37 37 38 38 39 39 40 40 41 42 42 42 42 43 44 45 46 45 45 47 49 50 51 52 54 55 55 56 56 57 57 57 57 56
33 34 36 37 39 41 41 41 41 41 42 43 44 45 45 45 45 46 47 46 45 45 45 44 43 41 40 39 39 40 40 40 40 39 37 34 32 32 33 33 34 34 34 34 35 35 36 36 36 37 37 38 38 39 39 40 40 40 40 41 42 42 42 42 43 44 45 46 45 46 48 49 50 50 51 52 53 53 54 55 56 56 56 56 55
37 37 38 40 42 43 42 41 41 41 42 43 44 44 45 45 46 46 46 45 45 45 45 43 41 39 39 40 40 41 40 40 40 38 36 34 33 33 33 34 35 35 36 36 36 37 37 37 37 37 38 38 39 40 40 40 40 40 40 40 41 42 42 41 42 44 45 45 45 46 47 48 49 49 50 50 51 52 52 53 53 54 55 56 54
36 37 40 42 43 43 42 42 41 41 41 42 44 44 45 46 46 45 45 44 45 45 43 40 39 39 41 42 42 41 40 40 39 38 36 35 34 34 34 36 36 36 37 37 38 38 38 38 37 37 37 38 38 39 39 39 39 39 39 39 40 40 40 40 42 43 44 44 44 45 46 46 47 48 48 49 50 51 51 52 52 53 54 55 55
35 38 40 40 38 37 37 37 37 38 39 41 42 43 44 45 44 44 43 44 43 42 41 40 41 42 43 42 42 41 40 39 39 37 36 35 35 35 36 37 37 37 38 39 39 40 39 38 37 37 37 37 37 37 37 37 38 37 37 38 38 39 39 40 41 42 42 42 43 44 45 45 46 47 48 49 49 50 51 51 51 52 53 55 54
35 36 35 34 33 33 33 34 35 37 39 40 40 41 42 42 41 41 41 42 42 42 42 43 43 43 42 42 41 41 39 38 38 37 36 36 37 37 37 38 39 38 39 40 41 41 40 38 37 37 37 37 37 37 37 38 38 37 37 37 38 38 38 39 40 40 40 41 42 43 44 45 46 47 48 48 48 49 50 51 51 51 52 53 53
34 34 34 35 35 35 36 36 37 38 38 38 38 38 39 39 39 40 41 42 43 43 43 43 42 42 41 41 41 40 38 37 37 37 37 37 38 38 38 40 40 39 40 41 42 42 40 38 37 38 38 38 38 38 38 38 38 38 38 38 38 38 39 40 40 39 39 40 42 43 43 44 46 47 47 47 48 48 49 49 50 49 50 52 51
35 36 36 37 36 36 36 36 36 36 36 36 36 37 38 38 39 40 40 41 42 42 42 42 41 41 40 40 40 38 37 36 36 37 38 38 39 40 40 41 41 40 41 42 43 42 40 38 38 39 40 40 39 39 39 39 40 40 40 40 40 41 42 42 40 39 39 41 42 43 43 44 45 46 47 47 47 47 48 48 48 48 49 50 50
36 36 37 36 36 35 34 34 35 35 35 35 36 36 36 37 37 38 39 40 41 41 41 41 40 40 39 39 38 37 36 36 36 38 39 39 40 41 42 42 41 41 42 43 43 42 41 40 39 40 42 43 42 41 41 42 42 42 43 43 43 44 44 43 41 40 41 43 43 43 43 44 45 45 46 46 46 46 47 47 47 47 48 49 48
36 36 36 35 35 34 34 34 34 34 34 34 35 35 36 37 38 39 40 40 41 41 41 40 40 39 38 38 37 36 36 36 37 38 39 39 40 42 42 42 42 42 43 43 43 42 41 41 42 43 45 46 45 45 45 46 46 46 46 46 45 46 46 45 43 43 44 44 44 43 43 44 44 45 45 46 46 46 46 46 46 46 47 47 47
35 35 34 34 33 33 32 32 32 33 33 34 36 37 37 39 40 40 41 41 41 40 40 39 39 38 37 37 36 36 37 37 38 39 39 40 41 41 42 42 42 42 43 43 44 43 43 44 45 46 47 48 49 49 50 51 51 50 49 49 48 48 49 48 47 46 46 45 44 43 43 44 44 44 45 45 45 45 46 45 45 45 46 46 45
32 32 31 31 31 31 31 31 32 33 34 35 37 37 38 39 39 40 40 40 40 40 39 38 38 38 37 37 37 37 38 39 39 40 40 41 41 41 41 41 42 43 45 45 46 45 45 46 48 50 50 51 52 53 54 54 54 54 53 51 50 50 51 50 49 48 46 45 44 44 43 43 44 44 44 44 45 45 45 45 45 44 45 45 44
29 29 29 29 30 30 31 32 32 33 34 35 35 36 37 38 38 38 39 39 39 38 38 37 38 38 38 38 38 38 39 40 41 41 41 41 41 40 41 42 43 45 47 48 48 48 49 50 52 53 54 54 55 56 56 57 57 56 55 53 52 53 53 51 50 48 46 45 45 45 44 44 44 44 44 44 44 44 45 45 44 44 44 45 44
28 28 29 29 30 30 31 31 32 32 33 33 34 34 35 36 36 36 36 36 36 36 36 37 38 38 39 39 40 41 42 43 44 44 43 43 42 42 43 44 46 47 48 49 51 52 53 54 55 56 57 57 58 58 59 59 58 57 57 55 55 54 53 52 50 48 46 46 46 45 44 44 44 44 43 43 43 44 45 45 44 44 44 44 44
29 29 29 30 30 30 31 31 31 31 31 32 33 33 34 34 34 35 35 35 36 36 37 38 39 40 41 42 43 44 45 46 46 46 46 46 46 46 47 47 48 49 50 51 53 54 56 57 58 60 60 60 61 61 61 60 59 58 58 57 56 55 53 52 50 48 46 46 46 46 45 44 44 44 43 42 42 43 44 44 44 44 44 44 44
29 29 29 30 29 29 30 30 30 31 31 32 32 33 34 34 35 35 36 36 38 38 39 40 41 42 44 45 46 47 47 47 48 48 49 50 50 50 50 50 51 52 52 54 55 56 58 59 61 62 63 63 64 63 62 61 60 59 58 56 55 54 53 52 50 48 46 47 47 46 45 44 44 44 42 42 42 42 43 43 43 44 44 44 44
28 28 28 28 28 29 29 30 31 31 32 33 34 34 35 36 37 38 39 39 40 41 42 43 44 45 47 47 48 49 49 49 50 51 52 52 53 53 53 53 54 54 55 57 58 59 61 62 63 64 65 65 64 63 62 61 60 59 57 55 53 53 53 52 50 48 47 47 47 46 46 45 44 43 42 41 41 42 42 42 43 44 44 44 44
26 26 26 27 27 29 30 31 32 33 35 36 36 37 38 39 40 41 41 42 43 44 45 46 47 48 49 50 50 51 51 51 52 53 54 54 55 55 55 55 55 55 56 57 59 60 61 61 62 63 63 62 61 61 60 60 59 57 56 54 53 53 52 51 49 48 47 47 46 46 45 44 44 43 42 42 41 41 42 42 42 43 44 44 43
25 25 25 26 27 28 30 32 33 35 37 38 39 40 41 42 42 43 44 45 46 47 48 49 49 50 51 52 52 53 53 54 54 55 56 56 57 57 57 56 56 55 56 57 58 58 59 59 58 58 56 55 55 55 55 56 56 55 54 52 52 51 51 50 49 48 47 46 46 45 45 44 43 43 42 42 42 41 41 41 42 43 43 43 42
24 24 25 26 28 29 31 32 34 35 37 39 40 42 43 43 44 45 46 47 47 48 48 49 50 51 51 52 53 54 54 55 55 55 56 56 56 57 57 56 56 56 56 57 58 57 57 56 55 53 52 51 51 51 51 52 52 52 51 50 50 49 49 49 49 47 47 46 45 45 44 43 43 43 42 42 42 42 41 41 41 42 43 43 41
25 26 27 28 29 31 32 34 35 37 38 39 41 42 43 44 44 45 45 46 46 47 48 49 50 51 52 52 53 54 54 54 55 55 56 55 55 55 55 54 54 54 55 56 56 55 54 54 53 52 52 51 51 51 50 50 49 49 49 48 48 48 48 49 48 47 47 46 46 45 43 43 42 42 42 42 42 42 41 41 41 42 43 42 41
28 28 29 31 32 33 35 36 38 39 41 42 43 43 43 44 44 44 44 45 46 47 48 50 51 52 52 52 53 53 53 53 53 53 53 53 54 53 53 53 53 53 53 53 54 54 54 54 54 54 53 53 52 51 50 49 48 47 47 47 47 48 48 49 48 47 47 47 45 44 43 42 42 42 42 42 42 41 40 40 41 42 43 42 41
30 31 32 33 34 36 38 39 41 42 43 44 45 45 45 44 44 45 46 46 48 49 50 50 51 51 51 51 51 51 51 51 51 51 51 52 52 52 53 53 53 53 53 53 53 52 52 52 52 51 51 50 50 49 48 47 47 46 47 47 47 48 49 49 48 48 47 46 44 43 42 42 41 41 42 42 42 41 40 40 41 42 42 42 40
33 34 35 36 37 39 41 42 43 44 45 45 45 45 45 46 46 47 48 49 50 50 50 50 50 50 50 50 49 49 49 49 49 49 49 49 48 48 49 50 50 50 50 50 50 50 50 50 50 49 48 48 47 47 46 46 46 46 47 48 48 49 49 49 48 47 46 45 44 42 42 41 41 42 43 42 41 40 40 40 41 41 41 40 39
36 37 38 40 41 43 44 45 45 45 45 45 46 46 47 48 49 49 49 49 49 49 48 48 48 48 48 48 47 47 47 47 47 47 46 45 45 45 45 45 46 47 47 48 48 48 48 48 48 48 48 48 48 47 47 48 48 48 49 49 50 50 49 48 47 46 45 44 43 42 42 41 42 43 43 42 41 40 39 39 40 41 40 39 38
40 41 42 43 44 45 44 45 45 45 45 46 47 48 48 49 49 48 48 48 48 48 47 47 47 46 46 46 46 46 45 45 45 45 44 44 44 44 45 45 45 46 47 47 47 47 48 48 49 49 50 50 50 50 51 51 51 52 52 52 52 52 51 50 48 46 45 44 43 43 42 42 43 43 42 41 40 39 39 39 39 40 39 38 36
43 43 43 44 44 43 44 44 44 45 46 47 47 47 47 47 47 47 46 47 47 47 46 46 45 45 44 44 45 45 45 45 44 44 44 44 44 44 45 45 45 46 46 47 48 49 49 50 51 51 52 52 53 53 53 53 54 54 54 55 55 54 53 51 49 47 46 45 44 43 43 43 43 43 41 40 39 38 38 38 38 39 38 37 35
42 42 42 42 43 43 44 44 45 45 46 46 46 46 45 45 45 45 45 45 45 45 45 45 44 44 44 44 44 44 44 43 43 42 43 43 43 44 45 45 46 47 47 48 49 50 50 51 52 52 53 53 54 54 55 55 55 56 56 56 55 55 54 52 50 48 47 46 45 44 43 43 43 42 40 38 37 37 38 37 37 37 37 35 34
40 41 41 41 42 43 43 44 44 45 45 45 45 45 45 44 44 44 44 44 44 44 44 43 43 43 43 42 43 43 43 43 43 43 43 43 44 45 45 46 47 47 48 49 49 50 51 51 52 53 53 54 55 55 56 56 57 57 57 56 56 55 54 53 50 48 47 46 45 44 43 43 42 40 38 36 36 36 36 36 36 36 34 33 33
40 40 41 41 42 42 42 43 43 44 44 44 44 44 44 43 43 43 43 42 42 42 42 42 42 42 41 41 41 42 42 43 43 43 44 44 45 45 46 46 47 47 48 49 50 50 51 52 52 53 54 54 55 56 56 57 57 57 57 57 57 55 54 52 49 47 46 45 44 44 43 42 40 37 35 35 35 35 35 34 34 33 32 31 32
40 41 41 42 42 42 42 42 42 42 42 43 42 43 43 42 42 42 41 41 41 41 40 40 40 40 40 41 41 42 42 43 43 44 44 44 45 46 46 47 47 48 48 49 50 51 51 52 52 53 53 53 54 54 55 55 55 56 56 56 55 54 53 50 47 45 44 44 43 43 42 39 36 34 33 33 33 33 33 33 32 31 30 30 30
41 42 42 42 42 42 42 42 42 41 42 41 41 41 41 41 41 41 40 40 40 40 39 40 40 40 41 42 42 42 43 43 44 44 45 45 45 46 46 46 47 47 47 48 48 49 50 50 50 51 51 50 50 50 50 51 51 51 50 50 50 50 49 46 44 43 42 41 40 40 38 35 33 31 31 32 32 31 31 30 30 29 29 29 29
41 42 42 42 42 42 41 41 41 41 41 40 40 40 40 40 39 39 39 39 40 40 40 41 41 42 43 43 43 43 44 44 44 45 45 45 45 45 45 45 45 44 44 45 46 46 47 47 46 46 46 46 45 45 44 44 44 43 43 43 42 42 42 41 40 39 38 38 37 37 34 31 30 30 30 30 29 29 28 28 28 28 28 27 27
41 41 41 41 41 40 40 40 40 40 39 39 39 39 39 39 39 39 39 40 41 41 42 42 43 43 44 44 44 44 44 44 44 44 44 44 43 43 42 42 41 41 41 42 42 43 43 42 41 41 40 40 39 38 37 36 35 35 35 35 34 34 34 35 35 34 34 34 34 32 30 29 28 28 28 27 27 26 26 26 26 26 26 25 25
39 39 40 40 40 40 40 40 39 39 39 39 39 39 39 39 40 40 41 41 41 42 43 43 44 44 44 44 44 44 43 43 43 42 42 41 41 40 39 38 37 37 37 38 38 38 37 36 36 35 35 34 33 32 30 29 27 26 25 25 25 26 27 28 29 29 29 30 29 28 27 26 26 25 24 24 24 24 24 24 25 25 24 23 23
38 38 39 39 39 40 40 40 40 40 40 39 40 40 40 40 40 41 41 41 42 43 43 43 43 43 43 43 42 42 41 41 40 39 38 38 37 35 34 33 33 33 33 34 34 33 33 31 31 30 30 29 28 27 25 23 21 19 18 18 18 19 21 22 23 24 25 25 25 25 24 23 23 22 22 22 22 22 23 23 23 23 22 22 22
37 38 39 39 40 40 41 41 41 41 40 40 40 40 40 40 40 40 41 41 42 42 42 41 41 40 40 39 39 38 37 37 36 35 34 33 32 31 30 29 29 29 29 30 30 29 28 27 27 26 26 25 24 23 21 19 17 15 13 12 13 14 15 17 18 19 20 21 21 21 21 20 20 20 20 20 20 21 22 22 22 21 21 21 21
37 38 39 39 40 41 41 42 42 42 41 41 40 40 39 40 40 40 40 40 40 40 39 39 38 37 37 36 35 34 34 33 32 31 30 29 27 27 26 25 25 25 26 26 26 25 25 24 24 23 23 22 21 20 18 16 14 12 11 9 9 10 11 12 14 15 17 17 18 18 18 18 17 17 18 19 20 20 20 20 21 21 20 20 20
Wind_Direction
231 232 232 233 234 235 237 239 241 243 245 247 250 252 256 259 262 265 268 271 274 277 281 285 290 293 294 295 296 297 300 303 306 308 309 311 314 316 315 315 315 317 318 319 319 319 318 317 317 315 314 313 312 313 315 316 317 319 320 322 323 324 325 324 324 325 326 325 324 325 326 326 326 326 325 324 324 324 325 326 326 326 324 321 318
234 235 235 235 236 237 239 241 242 244 246 248 251 254 258 261 264 266 269 271 275 278 283 287 291 293 294 294 296 298 302 305 307 309 310 313 315 315 314 315 316 318 319 319 319 318 317 316 315 313 311 310 311 312 314 316 317 319 321 322 323 322 322 322 322 324 325 326 324 324 325 325 325 326 325 324 324 325 325 326 327 327 326 322 319
237 237 237 238 238 239 240 242 243 245 247 249 252 256 259 262 265 267 269 272 276 280 284 289 291 292 293 294 296 299 303 306 307 309 311 313 314 314 314 315 316 318 319 318 317 316 315 314 313 310 308 308 309 311 313 315 316 318 320 321 320 320 319 319 320 320 322 323 323 323 324 324 325 325 324 324 325 325 326 326 327 327 326 323 319
239 239 239 239 240 241 242 244 245 247 249 251 254 258 260 263 265 267 270 273 277 281 285 289 290 291 291 293 295 299 303 305 306 308 311 313 313 312 313 315 316 317 317 316 315 314 313 312 310 306 304 304 307 309 311 313 315 316 317 317 317 316 316 316 316 317 318 320 322 322 322 323 323 323 322 323 324 325 325 326 326 326 326 323 320
243 242 242 242 243 244 245 246 247 249 250 253 256 259 261 263 266 268 271 274 278 282 286 289 289 289 290 292 295 299 302 304 305 308 311 312 311 311 312 314 315 315 314 313 312 311 310 308 305 301 300 301 304 306 309 311 312 313 314 314 313 313 312 312 313 313 315 317 319 320 319 320 321 321 321 323 324 324 324 325 325 325 326 325 322
246 246 246 246 247 248 248 249 250 251 252 254 257 260 262 264 266 269 272 275 279 283 285 287 287 287 289 291 295 298 300 302 305 307 308 309 308 309 311 313 313 312 311 310 309 309 307 304 299 295 295 297 300 303 306 307 309 309 310 310 310 310 310 310 311 311 313 315 316 317 318 319 320 321 322 323 324 324 323 324 324 325 326 326 323
249 249 249 250 250 251 252 252 252 252 253 255 257 260 262 264 267 269 272 275 279 282 284 284 284 285 287 290 293 297 298 300 303 305 305 305 306 307 309 310 310 308 307 307 307 306 304 299 293 290 291 294 297 300 302 303 305 306 306 307 307 307 308 308 309 309 311 313 314 315 317 318 320 321 322 322 322 322 322 323 323 324 326 326 325
251 251 251 252 253 254 254 254 254 254 254 256 258 261 263 265 268 271 273 277 279 281 282 282 283 284 286 288 291 293 296 299 301 302 302 303 304 306 307 307 306 305 304 304 304 303 301 295 289 286 288 291 293 296 298 299 301 302 303 305 305 305 306 306 307 307 308 310 312 314 316 318 319 321 322 322 321 321 321 322 323 325 327 328 328
252 252 254 255 257 257 256 256 256 256 256 258 260 262 265 267 270 272 274 277 279 280 281 282 283 284 285 287 289 291 294 297 299 300 300 301 303 304 304 303 302 301 301 302 301 300 298 294 287 284 285 288 290 292 294 296 298 299 301 302 303 303 304 304 304 305 306 308 310 312 314 316 318 320 322 321 320 320 321 322 324 326 328 329 329
255 256 257 258 258 258 258 259 259 259 260 261 262 264 266 269 271 273 275 276 278 280 281 282 283 283 284 286 287 290 293 295 296 297 298 299 301 302 301 300 299 299 299 299 299 298 296 294 289 284 284 285 287 289 291 293 295 297 299 300 301 301 301 302 302 302 303 305 307 309 312 314 317 318 320 321 320 320 322 323 325 327 328 329 330
256 258 258 258 258 260 262 263 264 264 264 264 264 266 268 270 272 273 275 277 278 279 281 282 282 282 282 284 285 288 290 292 294 295 296 297 298 298 297 297 297 297 297 297 296 296 295 294 292 288 285 284 286 288 290 292 294 295 297 298 299 299 299 300 300 300 301 303 305 308 310 313 315 317 318 320 320 321 322 324 326 328 329 330 330
256 255 254 256 259 263 266 267 267 267 267 267 267 268 269 271 272 274 276 277 278 279 280 281 280 280 281 283 284 286 288 290 292 293 294 294 295 294 294 294 295 295 296 295 295 295 295 295 294 291 288 286 287 288 290 292 293 294 296 297 297 298 298 299 299 299 300 301 303 306 309 311 313 315 317 319 320 320 322 324 327 328 330 331 330
252 252 254 258 262 266 267 267 266 267 268 268 269 269 269 271 273 275 277 277 277 279 279 279 279 280 282 282 283 284 286 289 290 291 291 291 292 292 292 293 293 294 294 294 294 294 294 294 294 294 292 291 290 291 292 293 294 295 295 296 297 297 298 299 299 299 300 301 303 306 308 310 312 315 317 318 319 320 322 324 327 328 330 331 329
251 255 258 262 266 268 267 266 265 267 268 268 268 269 270 272 274 274 275 276 278 279 279 278 279 280 280 281 281 283 285 287 288 288 289 290 290 290 291 292 293 293 293 294 294 294 294 294 294 295 295 295 295 295 295 295 296 296 296 296 297 297 298 299 300 300 300 302 304 306 307 309 312 314 316 318 319 320 322 325 327 329 330 331 329
254 258 262 266 268 268 267 265 264 265 266 267 268 269 270 272 272 273 275 277 278 278 278 278 278 279 279 280 281 282 284 284 284 285 287 287 287 288 290 291 292 292 293 294 294 294 294 294 294 295 297 298 298 298 297 298 298 298 298 298 297 298 299 300 301 300 301 303 304 305 307 309 312 314 316 317 318 320 323 325 327 328 330 331 329
256 261 265 267 267 266 264 263 262 263 264 265 266 268 270 271 271 273 276 277 277 276 276 277 278 278 279 279 279 280 281 281 282 283 284 285 286 287 288 289 291 292 293 294 294 294 295 295 296 297 298 299 300 300 300 300 300 300 301 300 299 300 301 302 302 301 302 304 305 306 307 309 312 314 315 316 317 320 322 325 327 327 328 330 328
261 266 267 267 265 264 262 260 258 259 260 263 265 267 269 270 271 273 275 275 274 274 275 276 276 276 275 275 276 278 278 279 279 280 282 284 285 286 287 288 290 291 292 293 294 295 296 297 298 299 300 301 302 302 303 303 303 303 303 303 302 303 304 303 302 302 304 306 306 307 308 310 312 313 314 315 317 319 322 324 326 327 328 329 328
267 268 267 264 263 261 258 256 255 255 257 259 262 265 267 268 270 272 271 270 270 271 272 272 271 271 272 274 275 276 276 277 278 280 282 284 285 285 287 288 289 291 292 293 294 295 296 298 299 300 301 302 303 304 305 305 305 306 306 305 305 306 306 304 303 304 305 306 306 307 308 309 311 311 313 315 317 319 321 323 325 327 328 328 327
266 262 259 256 253 252 252 252 253 253 255 257 260 262 263 264 266 266 265 266 267 268 268 268 269 270 272 273 274 275 275 276 277 279 282 283 284 285 286 287 289 290 291 292 293 294 295 298 299 300 301 302 303 304 305 305 306 307 306 306 308 309 307 305 305 306 306 306 306 307 307 308 310 311 313 314 316 318 320 322 324 326 327 328 326
255 250 249 249 251 253 255 256 256 256 258 259 259 260 261 262 262 263 263 264 265 266 267 268 270 271 272 273 273 274 275 275 276 279 281 282 283 285 286 287 288 289 290 290 291 292 294 297 298 299 300 301 303 303 304 305 306 306 306 306 308 308 305 306 307 308 307 307 307 307 307 308 309 310 312 313 315 317 319 322 323 325 326 327 326
248 248 251 254 257 260 261 261 262 262 262 262 262 263 264 264 265 264 264 264 265 267 269 270 271 272 272 273 274 274 275 276 276 278 279 281 282 284 285 286 287 288 288 288 289 291 293 295 297 298 299 300 301 302 302 303 304 305 306 306 306 305 304 306 307 306 306 308 308 307 306 307 308 309 311 312 314 316 318 321 322 324 325 326 325
251 253 257 260 263 265 266 267 267 266 266 266 266 267 267 267 267 266 266 267 269 270 271 272 273 273 272 273 274 275 275 275 276 277 279 280 282 282 283 285 286 286 286 287 288 290 292 293 295 297 297 298 300 301 300 300 300 301 303 304 304 302 302 304 305 303 304 306 306 305 305 305 306 308 310 311 313 315 317 319 321 323 324 324 324
257 260 263 266 268 269 269 269 269 268 268 269 269 269 269 269 270 270 271 271 272 272 273 273 273 272 272 272 273 274 274 275 276 277 278 280 281 281 282 283 284 284 285 286 287 288 290 292 293 294 294 296 298 299 298 298 298 299 300 301 301 299 299 300 301 301 301 303 303 303 303 303 305 307 308 309 311 313 315 318 320 321 323 324 323
263 265 268 269 270 270 270 269 269 269 270 270 270 271 271 272 272 272 273 273 272 272 272 272 271 271 271 271 272 272 273 274 275 276 277 279 279 280 281 282 282 282 283 284 285 287 289 289 290 291 293 294 296 296 295 296 298 299 299 299 298 297 298 298 298 299 300 300 300 300 300 301 303 305 306 307 309 311 314 316 318 320 321 323 322
265 267 268 269 270 270 270 271 271 271 271 271 272 273 273 273 273 273 272 271 271 270 270 270 270 270 271 271 272 273 274 274 275 276 277 277 278 278 279 280 280 280 281 282 284 285 286 286 287 289 291 292 292 293 293 295 296 297 298 298 296 295 296 296 295 296 298 297 297 298 299 299 301 302 303 305 307 309 312 314 317 318 320 322 322
267 269 270 271 272 273 273 274 274 274 274 274 274 274 274 273 273 272 271 271 271 271 272 272 272 272 273 274 275 274 273 273 273 274 274 275 275 276 276 277 277 278 279 281 282 282 283 284 285 287 287 288 289 291 292 292 293 294 294 294 293 292 292 291 291 293 295 294 294 296 297 297 298 299 301 303 305 308 310 313 316 317 318 320 320
272 273 275 275 276 277 277 278 278 278 278 278 277 276 275 274 274 273 274 274 275 275 275 275 275 275 275 275 274 273 273 273 273 273 273 273 273 273 273 273 274 275 276 278 280 281 282 284 285 284 285 286 288 289 289 289 290 291 291 290 289 288 287 287 288 290 292 292 293 293 294 295 296 297 299 301 304 306 309 312 315 316 316 318 319
277 278 279 280 280 280 280 280 280 280 280 279 279 278 278 277 277 278 278 279 278 278 278 277 277 277 276 275 274 273 274 274 274 274 273 273 272 272 271 272 272 273 275 277 278 279 280 282 282 283 285 286 287 288 287 288 289 290 289 287 286 285 285 285 286 287 289 290 291 291 291 292 293 295 297 299 302 304 307 310 313 314 315 317 318
280 281 281 281 281 281 281 281 281 281 281 280 280 280 279 279 280 280 279 279 278 278 278 278 278 277 276 275 275 275 275 276 275 275 274 275 275 275 274 274 273 274 274 275 275 276 277 279 281 283 284 285 285 285 286 287 288 288 287 286 286 285 285 285 285 285 286 288 290 289 288 289 291 293 295 298 300 303 306 309 311 312 314 315 316
280 281 281 281 281 281 281 282 281 281 281 281 280 280 279 279 279 279 278 278 277 277 277 276 276 276 275 275 276 276 276 277 276 276 277 277 277 277 277 277 276 276 276 275 275 276 278 279 281 282 282 283 283 285 286 286 286 286 286 286 285 284 284 284 283 283 284 286 288 287 286 288 290 291 293 296 299 301 304 307 309 311 312 313 315
282 283 283 284 284 284 284 284 283 282 281 280 280 279 278 278 278 278 277 277 277 277 276 276 276 276 276 276 276 276 277 277 276 277 277 277 277 278 278 278 278 278 277 277 277 278 279 280 281 282 282 283 284 285 285 285 285 285 285 284 284 283 283 282 281 281 283 286 287 286 285 286 288 290 292 295 297 299 302 305 308 309 310 312 313
282 284 285 286 287 286 285 284 283 281 280 279 278 278 277 278 278 278 278 277 277 277 277 277 277 277 278 278 278 277 277 277 277 277 278 278 279 279 279 280 280 280 279 279 280 281 282 282 283 284 285 285 286 286 285 285 284 284 283 283 282 281 281 280 280 280 283 285 285 284 284 285 287 289 291 294 295 297 300 303 306 307 308 310 311
279 281 283 284 285 285 284 283 282 282 281 279 279 278 278 278 278 278 278 278 278 278 278 278 278 278 278 278 279 279 279 279 279 279 280 280 281 281 281 282 282 282 282 281 281 282 282 283 284 285 286 286 286 286 284 283 282 281 281 280 280 279 279 279 279 281 284 285 284 283 283 284 286 288 290 292 294 295 298 301 304 305 306 308 308
275 278 281 283 284 285 285 285 285 285 284 283 282 281 279 278 278 277 277 277 277 278 278 278 278 278 279 279 280 280 281 281 281 281 281 281 282 282 282 283 283 282 282 281 281 281 281 282 283 284 285 285 285 284 283 281 280 279 278 278 278 278 278 278 279 281 284 284 282 281 282 283 284 287 289 291 292 293 296 299 302 303 305 306 306
275 279 282 284 286 287 288 288 289 289 288 287 286 283 281 280 279 278 277 277 278 278 279 279 280 280 281 282 282 282 283 283 283 283 283 283 283 283 283 282 282 281 281 281 282 282 283 283 283 283 284 284 283 283 282 281 280 279 278 277 277 277 278 279 280 282 283 282 281 280 281 282 283 285 287 289 290 291 294 298 300 302 304 305 304
281 284 286 288 289 290 290 291 291 291 290 288 286 284 282 281 280 280 280 280 281 281 282 283 284 284 285 285 284 284 284 284 284 284 284 283 283 283 282 282 282 281 281 282 283 284 285 285 284 284 284 284 283 283 283 282 281 280 279 278 278 278 279 280 281 281 281 280 279 280 280 281 282 284 286 286 287 289 292 296 298 300 302 303 302
287 289 290 291 292 292 292 292 292 291 290 287 285 283 282 282 282 283 283 284 284 285 285 286 286 286 286 285 284 284 284 285 285 285 285 285 284 284 283 284 284 284 284 284 285 285 285 285 285 285 285 284 284 284 284 283 282 281 280 279 279 279 280 280 280 280 279 279 279 278 278 280 282 283 283 284 285 287 290 293 296 298 300 300 300
292 293 294 294 294 293 293 292 291 290 287 285 284 283 284 284 285 286 286 287 287 287 287 287 286 286 286 285 285 285 285 286 286 287 287 286 286 286 286 285 285 285 285 285 285 285 286 286 286 286 287 287 286 286 285 284 283 282 281 280 280 280 279 280 279 279 278 277 277 276 277 278 280 280 280 281 283 285 288 291 293 295 297 298 297
294 294 295 294 293 293 292 290 289 288 287 286 286 286 287 287 288 288 288 288 288 288 288 288 288 288 288 287 287 287 287 287 288 288 288 288 287 287 287 286 286 286 286 286 287 287 288 288 288 288 288 288 287 286 285 284 283 282 281 280 280 279 279 278 278 277 276 275 274 274 275 276 276 277 278 279 280 283 286 289 291 294 295 295 294
294 295 295 294 294 293 292 291 290 290 289 289 289 290 290 290 290 290 290 289 289 289 289 289 289 289 289 289 289 289 289 290 290 289 289 289 289 289 289 288 288 288 289 289 289 289 289 289 289 288 288 287 286 285 284 283 282 281 280 279 279 278 277 277 275 274 272 271 271 272 272 273 273 274 275 277 278 281 284 287 290 292 293 293 293
295 295 295 295 294 294 293 293 292 292 292 292 292 292 292 292 291 291 291 291 290 290 290 290 290 290 290 289 289 289 289 290 290 290 290 290 290 290 290 291 290 290 290 290 289 289 289 288 288 287 287 286 285 284 283 282 281 279 278 277 277 276 275 274 272 270 268 267 267 268 268 269 270 271 273 274 276 280 283 286 288 290 291 290 292
296 296 296 296 295 295 294 294 294 293 293 293 293 293 293 292 292 291 291 290 290 290 289 289 290 290 290 290 290 290 291 291 291 291 291 291 291 291 291 290 290 290 290 289 289 289 289 288 288 288 287 286 286 285 283 282 280 279 277 276 274 273 272 270 268 266 265 264 263 264 264 265 267 269 271 273 275 278 282 285 287 288 288 289 292
297 297 297 297 296 296 296 295 295 294 294 294 294 293 293 292 292 291 291 290 289 289 289 290 290 291 291 292 292 292 293 293 293 292 292 292 292 291 291 291 291 291 290 290 290 290 290 289 289 289 289 288 287 286 284 282 280 278 275 273 271 269 268 267 266 265 263 262 262 262 263 264 266 268 271 272 274 278 281 284 285 286 286 288 291
297 298 298 298 298 298 297 297 296 296 295 295 295 294 293 293 293 292 292 292 292 292 292 293 293 293 294 294 294 294 294 294 294 293 293 293 293 293 293 293 293 292 292 292 292 292 292 292 292 292 291 290 288 287 285 283 280 278 275 272 270 267 266 264 264 262 261 261 261 261 262 263 266 268 269 271 274 277 280 282 283 283 284 288 291
298 298 299 299 299 299 299 299 298 297 297 296 296 295 295 294 294 294 294 294 295 295 295 295 296 296 296 296 296 295 295 295 295 295 295 295 294 294 294 294 294 294 294 294 295 295 296 296 296 295 294 293 291 290 288 285 282 279 276 272 270 267 264 262 260 259 258 259 259 259 260 262 264 266 267 270 273 276 279 280 280 281 284 287 290
299 300 300 300 300 300 300 299 299 298 297 297 296 295 295 295 295 295 296 296 296 296 297 297 297 297 297 297 297 297 296 296 295 295 295 294 294 294 294 295 295 296 297 297 298 298 299 299 299 298 298 297 296 295 292 289 285 281 277 273 269 265 262 259 257 255 255 255 256 257 259 261 262 264 266 269 272 275 276 277 278 281 284 287 289
300 300 300 301 301 300 300 299 299 298 297 297 296 296 295 295 296 296 296 297 298 298 299 299 299 299 298 298 297 297 296 295 294 294 294 293 294 294 295 296 297 298 299 300 301 302 303 303 304 304 305 305 304 303 300 295 290 284 279 274 268 263 259 256 253 252 251 252 254 255 257 259 260 263 266 269 271 272 273 275 277 281 284 286 289
301 301 301 302 302 301 301 300 299 298 297 296 296 296 296 296 297 298 298 299 300 300 300 300 300 299 299 298 297 296 295 294 294 294 294 294 295 296 297 298 299 300 302 304 305 306 307 308 310 312 314 314 314 312 309 304 298 291 283 276 268 261 256 252 250 249 249 250 252 253 254 257 259 262 265 266 267 269 271 274 278 281 283 286 288
301 301 302 302 302 302 301 299 298 297 297 296 296 297 297 298 299 299 300 301 301 301 301 301 300 300 299 298 297 297 296 295 295 295 295 296 297 297 298 299 301 303 305 307 309 310 312 315 317 319 321 322 323 322 319 315 309 302 292 280 270 261 255 251 249 248 248 249 250 252 253 256 259 260 262 263 265 268 271 274 277 280 283 286 288
300 301 301 302 301 300 299 298 297 296 296 296 297 298 298 299 300 301 302 302 302 303 303 302 302 302 301 300 300 299 298 297 297 297 297 298 298 298 299 301 303 305 306 309 312 315 318 321 322 324 326 327 329 329 328 325 321 314 305 292 278 266 258 252 249 248 248 248 250 252 254 255 256 257 260 262 265 268 271 275 278 280 283 285 286
299 299 300 299 298 297 296 296 295 295 296 297 297 298 299 301 302 303 303 304 304 304 304 304 304 303 303 302 302 301 300 299 299 299 299 299 299 300 302 305 306 307 309 311 315 319 322 325 326 328 330 331 333 333 332 331 328 323 315 303 287 273 262 255 251 249 248 249 251 252 253 253 254 256 259 262 265 269 272 275 278 280 282 283 284
Height
3116 3117 3119 3120 3121 3122 3123 3124 3125 3126 3126 3127 3128 3128 3128 3128 3128 3128 3127 3127 3126 3125 3125 3124 3123 3123 3122 3121 3120 3118 3116 3114 3113 3111 3110 3109 3107 3106 3104 3102 3101 3099 3097 3095 3094 3092 3090 3088 3086 3084 3083 3081 3080 3078 3076 3074 3073 3071 3069 3067 3065 3064 3063 3062 3060 3060 3059 3056 3053 3051 3048 3046 3043 3040 3037 3035 3033 3030 3026 3022 3018 3014 3010 3007 3004
3114 3115 3116 3117 3118 3119 3120 3121 3122 3122 3123 3124 3124 3124 3125 3124 3124 3124 3123 3123 3122 3121 3121 3120 3119 3119 3118 3117 3115 3114 3112 3110 3109 3107 3106 3105 3103 3102 3100 3098 3096 3095 3093 3091 3089 3088 3086 3085 3083 3081 3079 3078 3076 3075 3073 3071 3069 3068 3066 3064 3062 3061 3059 3058 3057 3056 3055 3054 3051 3048 3045 3043 3040 3037 3034 3030 3028 3026 3022 3018 3014 3010 3006 3002 2998
3111 3112 3113 3114 3115 3116 3116 3117 3118 3119 3119 3120 3120 3121 3121 3121 3120 3120 3119 3118 3118 3117 3117 3116 3115 3115 3114 3112 3111 3109 3108 3106 3105 3103 3102 3101 3099 3097 3095 3094 3092 3090 3089 3087 3086 3084 3082 3081 3079 3078 3076 3075 3073 3072 3070 3068 3066 3064 3063 3061 3060 3058 3056 3055 3053 3052 3050 3049 3047 3044 3042 3039 3036 3033 3030 3026 3023 3020 3017 3013 3009 3005 3001 2997 2993
3107 3108 3109 3110 3111 3112 3113 3114 3114 3115 3116 3116 3117 3117 3117 3117 3116 3115 3115 3114 3114 3113 3112 3112 3111 3110 3109 3108 3107 3105 3104 3102 3101 3099 3098 3096 3095 3093 3091 3089 3088 3086 3085 3084 3082 3081 3079 3077 3076 3075 3073 3072 3070 3069 3067 3065 3063 3061 3060 3058 3057 3055 3053 3051 3049 3047 3046 3044 3043 3040 3037 3035 3032 3029 3026 3023 3019 3016 3012 3009 3005 3000 2996 2991 2987
3104 3105 3106 3106 3107 3108 3109 3110 3111 3111 3112 3112 3113 3113 3113 3112 3112 3111 3110 3110 3109 3109 3108 3107 3107 3106 3105 3104 3103 3101 3100 3098 3097 3095 3094 3092 3091 3089 3087 3085 3084 3082 3081 3080 3079 3077 3075 3074 3073 3072 3070 3069 3067 3066 3064 3062 3060 3058 3057 3055 3053 3051 3050 3048 3046 3044 3041 3040 3038 3036 3033 3031 3028 3025 3021 3018 3015 3011 3008 3005 3000 2995 2991 2987 2981
3101 3101 3102 3103 3103 3104 3105 3106 3107 3107 3108 3108 3108 3108 3108 3108 3107 3107 3106 3106 3105 3104 3104 3103 3102 3102 3101 3100 3098 3097 3096 3094 3093 3091 3090 3088 3087 3085 3083 3082 3080 3079 3078 3076 3075 3074 3072 3071 3070 3069 3067 3066 3064 3062 3060 3059 3057 3055 3053 3052 3050 3048 3046 3044 3042 3040 3037 3035 3034 3032 3029 3026 3024 3021 3017 3013 3009 3004 3001 3000 2996 2990 2985 2981 2976
3097 3098 3098 3099 3100 3101 3102 3102 3103 3103 3104 3104 3104 3104 3104 3103 3103 3102 3102 3101 3101 3100 3099 3098 3098 3097 3096 3095 3094 3092 3091 3090 3088 3087 3086 3084 3083 3081 3079 3078 3076 3075 3074 3073 3071 3070 3069 3067 3066 3065 3064 3062 3061 3059 3057 3055 3054 3052 3050 3048 3046 3044 3042 3040 3038 3035 3033 3031 3029 3027 3025 3022 3019 3016 3012 3008 3005 3000 2994 2991 2990 2986 2980 2976 2970
3093 3094 3094 3095 3096 3097 3098 3098 3099 3099 3099 3099 3099 3099 3099 3099 3098 3098 3097 3097 3096 3095 3094 3094 3093 3093 3092 3090 3089 3088 3086 3085 3084 3083 3081 3080 3079 3077 3075 3074 3073 3071 3070 3069 3068 3067 3065 3064 3063 3062 3060 3059 3057 3055 3054 3052 3050 3048 3046 3044 3042 3040 3038 3036 3033 3031 3029 3027 3025 3023 3020 3017 3014 3011 3008 3003 3000 2997 2991 2985 2981 2978 2973 2969 2965
3088 3089 3090 3091 3092 3093 3093 3094 3094 3094 3094 3094 3094 3094 3095 3094 3094 3094 3093 3093 3092 3091 3090 3089 3088 3088 3087 3086 3084 3083 3082 3081 3080 3078 3077 3076 3075 3073 3072 3070 3069 3067 3066 3065 3064 3063 3062 3060 3059 3058 3057 3055 3054 3052 3050 3048 3046 3044 3042 3040 3038 3036 3034 3032 3029 3027 3025 3023 3020 3018 3015 3012 3009 3006 3004 2999 2994 2991 2987 2982 2976 2972 2967 2963 2960
3084 3085 3085 3087 3088 3088 3088 3089 3089 3089 3089 3089 3090 3090 3090 3090 3090 3089 3089 3088 3087 3086 3085 3084 3084 3083 3082 3081 3079 3078 3078 3077 3075 3074 3073 3072 3071 3069 3068 3066 3065 3064 3062 3061 3060 3059 3058 3056 3055 3054 3053 3051 3050 3048 3046 3044 3042 3040 3038 3036 3034 3032 3030 3028 3025 3023 3020 3018 3015 3013 3011 3008 3004 3001 2999 2995 2990 2985 2981 2977 2972 2967 2962 2958 2955
3080 3081 3081 3083 3083 3083 3084 3084 3084 3084 3084 3085 3085 3086 3086 3085 3085 3085 3084 3083 3082 3081 3080 3079 3079 3078 3077 3076 3075 3074 3073 3072 3071 3070 3069 3068 3067 3065 3064 3062 3061 3060 3058 3057 3056 3055 3054 3052 3051 3050 3049 3047 3045 3044 3042 3040 3037 3036 3034 3032 3030 3028 3025 3023 3021 3018 3016 3013 3011 3008 3005 3003 2999 2996 2993 2990 2986 2981 2976 2972 2966 2961 2956 2951 2948
3075 3076 3077 3078 3078 3079 3079 3079 3079 3079 3080 3080 3081 3081 3081 3080 3080 3080 3079 3078 3077 3076 3075 3074 3074 3073 3072 3071 3070 3069 3068 3067 3066 3066 3065 3064 3063 3061 3060 3059 3057 3056 3055 3053 3052 3050 3049 3048 3047 3046 3044 3043 3041 3039 3037 3035 3033 3031 3029 3027 3025 3023 3020 3018 3016 3014 3011 3009 3006 3003 3000 2997 2995 2991 2987 2984 2981 2977 2972 2968 2962 2957 2953 2948 2942
3070 3071 3072 3073 3073 3074 3074 3074 3074 3075 3075 3076 3076 3076 3076 3075 3075 3075 3074 3073 3072 3071 3070 3069 3069 3068 3067 3066 3065 3064 3063 3063 3062 3061 3060 3060 3058 3057 3056 3054 3053 3052 3050 3049 3048 3046 3045 3043 3042 3041 3039 3038 3036 3034 3032 3030 3028 3026 3025 3023 3021 3018 3016 3014 3011 3009 3006 3003 3001 2998 2994 2992 2990 2986 2982 2978 2975 2971 2967 2963 2959 2954 2950 2945 2939
3065 3066 3067 3068 3068 3068 3068 3068 3069 3070 3071 3071 3071 3070 3071 3071 3071 3070 3069 3067 3066 3066 3065 3064 3063 3062 3061 3061 3060 3059 3059 3058 3057 3056 3056 3055 3054 3052 3051 3050 3049 3048 3046 3045 3044 3042 3040 3039 3037 3036 3034 3033 3031 3029 3027 3025 3024 3022 3020 3018 3016 3013 3011 3009 3006 3004 3001 2998 2996 2994 2990 2986 2984 2981 2977 2973 2969 2966 2962 2957 2953 2949 2946 2942 2937
3060 3060 3061 3062 3062 3063 3063 3064 3065 3065 3066 3066 3065 3065 3066 3066 3065 3064 3063 3062 3061 3060 3060 3059 3058 3057 3056 3056 3055 3054 3054 3053 3052 3052 3051 3050 3049 3048 3047 3045 3044 3043 3042 3040 3039 3037 3036 3034 3033 3031 3029 3027 3026 3024 3022 3020 3019 3017 3015 3013 3011 3009 3007 3005 3002 2999 2997 2994 2991 2989 2985 2981 2978 2975 2972 2969 2965 2961 2957 2952 2948 2944 2941 2939 2935
3054 3055 3056 3057 3057 3058 3058 3059 3060 3060 3060 3060 3060 3060 3061 3060 3060 3059 3057 3057 3056 3055 3054 3053 3052 3052 3051 3050 3050 3049 3049 3048 3047 3047 3046 3045 3044 3043 3043 3041 3040 3038 3037 3036 3034 3033 3031 3029 3028 3026 3024 3022 3020 3018 3017 3015 3014 3012 3010 3008 3006 3004 3003 3000 2997 2994 2992 2989 2986 2983 2980 2976 2973 2970 2967 2964 2960 2957 2954 2949 2945 2940 2936 2934 2932
3049 3051 3052 3052 3053 3053 3053 3054 3054 3054 3054 3054 3055 3055 3055 3055 3054 3053 3052 3051 3050 3049 3049 3048 3047 3046 3046 3045 3045 3044 3044 3043 3042 3042 3041 3040 3039 3038 3038 3037 3035 3034 3032 3031 3029 3028 3026 3024 3023 3021 3020 3017 3015 3013 3012 3010 3009 3007 3006 3004 3001 3000 2998 2996 2993 2990 2988 2985 2982 2978 2975 2972 2968 2965 2962 2959 2955 2952 2949 2946 2942 2937 2933 2929 2927
3045 3046 3047 3048 3048 3048 3048 3048 3049 3049 3049 3049 3049 3050 3049 3048 3047 3047 3046 3045 3045 3044 3043 3042 3042 3041 3041 3040 3040 3039 3039 3038 3037 3036 3036 3035 3034 3034 3033 3032 3030 3029 3028 3026 3024 3023 3021 3020 3018 3016 3015 3013 3011 3009 3007 3005 3004 3002 3001 2999 2997 2995 2994 2991 2988 2986 2984 2981 2977 2974 2970 2967 2964 2961 2958 2955 2951 2948 2944 2941 2937 2934 2929 2924 2921
3041 3042 3042 3042 3042 3042 3042 3043 3043 3043 3043 3043 3044 3043 3043 3042 3042 3041 3040 3040 3039 3038 3038 3037 3036 3036 3036 3035 3034 3034 3033 3033 3032 3031 3031 3030 3029 3028 3028 3026 3025 3025 3023 3021 3019 3018 3016 3015 3013 3011 3010 3008 3006 3004 3002 3000 2999 2998 2996 2994 2993 2991 2989 2986 2984 2982 2979 2976 2973 2970 2967 2963 2960 2957 2954 2950 2947 2944 2940 2936 2933 2930 2926 2921 2916
3036 3036 3036 3037 3037 3037 3037 3038 3038 3038 3038 3038 3038 3038 3037 3037 3036 3036 3035 3035 3034 3033 3032 3032 3031 3031 3031 3030 3029 3029 3028 3028 3027 3026 3025 3024 3023 3023 3022 3021 3020 3019 3018 3016 3014 3013 3012 3010 3008 3006 3005 3003 3002 3000 2998 2996 2994 2993 2991 2989 2988 2986 2984 2981 2979 2977 2974 2971 2969 2966 2963 2959 2956 2953 2950 2947 2943 2940 2936 2932 2929 2925 2922 2919 2914
3031 3031 3031 3032 3032 3032 3033 3033 3033 3033 3033 3033 3033 3032 3032 3032 3031 3031 3030 3029 3028 3028 3027 3027 3026 3026 3025 3024 3024 3024 3023 3023 3022 3021 3020 3019 3018 3017 3016 3016 3015 3013 3012 3010 3009 3008 3007 3005 3004 3001 2999 2998 2996 2995 2993 2991 2989 2988 2986 2985 2983 2981 2978 2976 2975 2972 2969 2967 2964 2961 2958 2955 2952 2949 2945 2943 2939 2936 2932 2928 2925 2921 2918 2915 2911
3026 3027 3027 3027 3027 3027 3028 3028 3028 3028 3028 3028 3028 3027 3027 3027 3026 3026 3025 3024 3023 3023 3022 3022 3021 3021 3020 3019 3019 3019 3019 3018 3018 3016 3015 3014 3013 3012 3011 3010 3009 3008 3006 3005 3004 3003 3002 3000 2998 2996 2994 2992 2991 2989 2988 2986 2984 2983 2981 2980 2978 2975 2973 2971 2970 2967 2964 2962 2959 2956 2953 2950 2947 2944 2941 2938 2935 2932 2929 2925 2921 2917 2914 2910 2907
3022 3022 3022 3022 3022 3022 3023 3023 3023 3023 3023 3023 3023 3023 3022 3022 3021 3021 3020 3019 3018 3017 3017 3016 3016 3015 3015 3015 3014 3014 3014 3013 3013 3011 3010 3009 3007 3006 3005 3004 3003 3002 3000 2999 2998 2997 2996 2994 2993 2991 2988 2986 2985 2984 2982 2980 2978 2977 2976 2974 2972 2969 2967 2966 2964 2962 2959 2957 2954 2952 2949 2946 2943 2940 2937 2934 2931 2929 2926 2922 2918 2914 2911 2908 2904
3017 3017 3017 3017 3018 3018 3018 3018 3019 3019 3019 3019 3018 3018 3018 3017 3016 3016 3015 3014 3013 3012 3012 3011 3010 3010 3010 3010 3010 3010 3009 3008 3007 3006 3005 3004 3002 3000 2999 2998 2997 2995 2994 2993 2992 2991 2990 2988 2986 2985 2982 2980 2979 2977 2976 2974 2972 2971 2970 2968 2966 2964 2961 2960 2958 2956 2954 2951 2949 2946 2944 2941 2938 2935 2932 2929 2927 2924 2922 2918 2915 2911 2908 2905 2902
3013 3013 3013 3013 3014 3014 3014 3014 3015 3015 3014 3014 3014 3013 3013 3012 3011 3011 3010 3009 3008 3008 3007 3006 3006 3005 3005 3005 3005 3005 3004 3003 3002 3001 3000 2998 2996 2995 2993 2992 2991 2989 2987 2987 2986 2985 2983 2981 2980 2978 2976 2974 2973 2971 2969 2967 2966 2964 2963 2961 2960 2958 2955 2953 2952 2950 2948 2946 2943 2941 2938 2935 2933 2930 2928 2925 2922 2920 2917 2914 2911 2907 2904 2901 2899
3009 3009 3009 3009 3010 3010 3010 3010 3010 3010 3009 3009 3009 3008 3008 3007 3007 3006 3005 3004 3003 3003 3003 3002 3001 3001 3000 3000 3000 3000 2998 2997 2996 2995 2994 2992 2991 2989 2988 2986 2984 2982 2980 2979 2979 2978 2977 2975 2973 2971 2969 2967 2966 2964 2963 2961 2959 2958 2956 2954 2953 2951 2949 2947 2945 2943 2942 2940 2937 2935 2932 2930 2927 2925 2923 2920 2917 2915 2912 2910 2907 2903 2900 2897 2896
3005 3005 3005 3005 3005 3005 3005 3005 3005 3005 3004 3004 3004 3003 3003 3002 3002 3001 3000 3000 2999 2999 2998 2997 2996 2995 2995 2995 2994 2993 2992 2991 2990 2989 2988 2986 2985 2983 2981 2979 2977 2975 2973 2972 2971 2970 2969 2968 2966 2964 2962 2960 2959 2957 2956 2954 2953 2951 2949 2947 2946 2944 2942 2940 2938 2936 2935 2933 2931 2929 2927 2924 2922 2920 2917 2915 2912 2910 2907 2905 2902 2899 2896 2893 2891
3001 3001 3001 3001 3001 3001 3001 3000 3000 3000 2999 2999 2999 2998 2998 2997 2997 2996 2996 2995 2994 2993 2992 2991 2991 2990 2989 2988 2987 2986 2985 2985 2983 2982 2981 2979 2978 2976 2974 2972 2971 2968 2967 2965 2963 2962 2961 2959 2957 2956 2954 2953 2951 2949 2948 2947 2946 2944 2942 2940 2938 2936 2934 2933 2931 2930 2928 2927 2925 2923 2921 2918 2916 2914 2912 2910 2907 2905 2902 2900 2897 2894 2891 2888 2886
2997 2997 2997 2997 2996 2996 2996 2996 2995 2995 2995 2994 2994 2993 2993 2992 2991 2991 2991 2989 2988 2987 2986 2985 2985 2984 2982 2982 2980 2979 2979 2978 2977 2975 2973 2971 2970 2968 2967 2965 2964 2962 2960 2958 2956 2954 2953 2951 2949 2948 2946 2945 2943 2941 2940 2939 2938 2936 2935 2933 2931 2929 2927 2926 2924 2923 2921 2919 2918 2916 2914 2912 2911 2909 2907 2904 2902 2900 2897 2895 2892 2889 2886 2883 2880
2993 2993 2992 2992 2992 2992 2992 2991 2991 2991 2990 2990 2989 2989 2988 2987 2986 2986 2985 2983 2982 2981 2980 2979 2978 2977 2975 2975 2974 2972 2972 2971 2969 2967 2965 2964 2962 2961 2960 2958 2956 2954 2952 2950 2947 2946 2945 2943 2942 2941 2939 2937 2935 2934 2932 2931 2929 2928 2927 2925 2923 2921 2919 2918 2917 2916 2914 2912 2911 2910 2908 2906 2905 2903 2901 2899 2897 2895 2893 2890 2887 2884 2882 2878 2876
2989 2988 2988 2988 2988 2988 2988 2987 2987 2986 2986 2985 2984 2983 2982 2982 2981 2980 2979 2978 2976 2975 2974 2972 2971 2970 2968 2968 2966 2965 2964 2963 2961 2959 2958 2956 2954 2953 2952 2950 2948 2946 2944 2941 2939 2938 2937 2936 2935 2933 2931 2929 2928 2927 2925 2923 2921 2920 2919 2917 2915 2913 2912 2911 2910 2908 2907 2906 2905 2903 2901 2900 2898 2897 2895 2893 2892 2890 2888 2885 2883 2880 2877 2874 2871
2985 2984 2984 2984 2984 2984 2983 2983 2982 2982 2981 2980 2979 2978 2977 2976 2975 2974 2972 2971 2970 2969 2967 2966 2964 2963 2961 2960 2959 2958 2956 2955 2953 2951 2950 2948 2946 2945 2943 2942 2940 2938 2935 2933 2931 2931 2929 2928 2927 2926 2924 2922 2921 2919 2918 2916 2914 2912 2910 2908 2906 2905 2904 2903 2902 2901 2900 2899 2898 2896 2895 2893 2892 2890 2889 2887 2886 2885 2883 2881 2878 2875 2873 2870 2867
2981 2980 2980 2980 2979 2979 2979 2978 2977 2977 2976 2975 2974 2973 2972 2971 2969 2968 2966 2964 2963 2962 2960 2959 2957 2956 2954 2953 2951 2950 2949 2947 2945 2944 2942 2940 2938 2937 2935 2934 2932 2930 2927 2925 2924 2924 2922 2920 2919 2918 2916 2914 2913 2912 2910 2908 2906 2904 2903 2901 2899 2898 2897 2896 2895 2894 2893 2892 2891 2890 2888 2887 2885 2884 2883 2881 2879 2879 2877 2875 2873 2870 2868 2865 2863
2976 2976 2975 2975 2974 2974 2973 2973 2972 2971 2970 2969 2968 2967 2965 2964 2963 2962 2960 2958 2956 2955 2954 2952 2950 2949 2947 2946 2944 2942 2941 2939 2938 2936 2934 2932 2931 2929 2927 2926 2925 2922 2920 2917 2916 2916 2915 2913 2912 2910 2908 2907 2906 2904 2902 2901 2899 2896 2895 2893 2892 2891 2890 2888 2888 2887 2886 2885 2884 2883 2882 2880 2879 2878 2876 2875 2874 2873 2872 2870 2867 2865 2863 2860 2858
2971 2970 2970 2969 2969 2968 2967 2967 2966 2965 2964 2962 2961 2960 2958 2957 2956 2955 2953 2952 2950 2949 2947 2945 2943 2941 2940 2939 2937 2935 2933 2931 2930 2928 2926 2924 2922 2921 2919 2918 2917 2915 2913 2910 2908 2907 2906 2905 2904 2902 2901 2899 2898 2896 2894 2893 2891 2889 2887 2885 2884 2883 2882 2881 2881 2880 2879 2878 2877 2876 2875 2874 2873 2871 2870 2869 2868 2867 2866 2864 2862 2859 2857 2855 2852
2966 2965 2965 2964 2963 2963 2962 2961 2960 2959 2957 2956 2955 2953 2952 2950 2949 2948 2947 2945 2944 2942 2941 2938 2936 2934 2932 2931 2929 2928 2926 2924 2922 2920 2918 2916 2915 2913 2912 2910 2909 2907 2906 2903 2901 2899 2898 2897 2895 2894 2892 2891 2889 2888 2886 2885 2883 2881 2879 2878 2877 2876 2875 2875 2874 2873 2872 2871 2870 2869 2869 2868 2867 2865 2864 2863 2862 2861 2860 2858 2856 2854 2852 2850 2847
2961 2961 2960 2959 2958 2957 2956 2955 2953 2952 2951 2949 2948 2947 2945 2944 2942 2941 2939 2938 2936 2935 2933 2932 2930 2927 2925 2923 2922 2920 2919 2917 2915 2913 2911 2909 2908 2906 2904 2903 2901 2900 2898 2896 2894 2892 2891 2889 2888 2886 2884 2883 2881 2880 2879 2877 2876 2874 2872 2871 2870 2869 2868 2868 2867 2866 2865 2865 2864 2863 2862 2861 2860 2859 2858 2857 2857 2855 2854 2852 2851 2849 2848 2845 2843
2956 2955 2954 2953 2952 2951 2950 2948 2947 2946 2944 2943 2941 2940 2939 2937 2936 2934 2932 2930 2929 2927 2926 2924 2923 2921 2918 2916 2915 2914 2912 2910 2908 2907 2905 2903 2901 2899 2897 2896 2894 2893 2891 2889 2887 2885 2884 2882 2880 2878 2877 2875 2874 2872 2871 2869 2868 2866 2865 2863 2863 2862 2861 2860 2860 2859 2859 2858 2857 2856 2856 2855 2854 2853 2852 2851 2851 2849 2848 2847 2845 2844 2843 2841 2838
2951 2950 2949 2948 2946 2945 2944 2942 2941 2939 2938 2936 2935 2934 2932 2930 2929 2927 2925 2924 2922 2921 2919 2917 2916 2914 2912 2910 2908 2907 2905 2904 2902 2900 2898 2896 2894 2892 2891 2889 2888 2886 2884 2882 2881 2879 2877 2875 2873 2872 2870 2868 2866 2864 2863 2861 2860 2858 2856 2855 2854 2853 2853 2853 2852 2852 2851 2851 2850 2850 2849 2848 2847 2846 2845 2845 2845 2843 2843 2842 2840 2839 2837 2836 2834
2945 2944 2943 2941 2940 2939 2937 2936 2935 2933 2932 2930 2929 2927 2926 2924 2923 2921 2919 2918 2916 2914 2913 2911 2909 2907 2906 2903 2901 2900 2899 2897 2895 2893 2891 2890 2888 2886 2884 2883 2881 2879 2877 2876 2874 2872 2870 2868 2866 2864 2862 2860 2858 2856 2854 2852 2850 2849 2848 2846 2845 2844 2844 2844 2844 2844 2843 2843 2843 2843 2842 2841 2840 2840 2839 2839 2838 2838 2837 2836 2835 2834 2832 2830 2829
2940 2938 2937 2936 2935 2933 2932 2930 2929 2927 2926 2924 2923 2921 2920 2918 2916 2915 2913 2911 2910 2908 2906 2904 2902 2900 2899 2897 2895 2893 2892 2890 2889 2887 2885 2883 2882 2880 2878 2876 2874 2873 2871 2869 2866 2864 2862 2860 2858 2855 2853 2851 2849 2847 2845 2843 2841 2839 2838 2837 2836 2835 2835 2835 2835 2835 2835 2835 2835 2835 2835 2834 2833 2833 2834 2833 2832 2832 2831 2831 2830 2829 2827 2826 2824
2934 2933 2932 2931 2929 2928 2927 2925 2923 2922 2920 2919 2917 2915 2914 2912 2910 2908 2907 2905 2903 2901 2899 2898 2896 2894 2892 2890 2888 2887 2885 2884 2882 2880 2879 2877 2875 2873 2872 2870 2867 2865 2863 2861 2858 2856 2854 2852 2849 2847 2844 2842 2839 2837 2835 2833 2831 2829 2828 2827 2826 2825 2825 2825 2826 2826 2826 2827 2827 2827 2827 2827 2827 2827 2828 2828 2827 2826 2826 2826 2825 2824 2822 2821 2820
2929 2928 2927 2925 2924 2923 2921 2919 2918 2916 2914 2912 2911 2909 2907 2906 2904 2902 2900 2898 2897 2895 2893 2891 2889 2888 2886 2884 2882 2880 2879 2877 2875 2874 2872 2870 2868 2866 2864 2862 2860 2858 2855 2853 2850 2848 2845 2843 2841 2838 2835 2832 2829 2826 2824 2822 2820 2818 2816 2815 2815 2815 2815 2816 2817 2818 2818 2819 2820 2820 2820 2821 2821 2822 2822 2822 2822 2821 2821 2821 2820 2819 2818 2817 2816
2924 2923 2921 2920 2919 2917 2915 2914 2912 2910 2908 2906 2905 2903 2901 2899 2897 2895 2894 2892 2890 2888 2887 2885 2883 2881 2880 2878 2876 2874 2872 2871 2869 2867 2865 2863 2861 2859 2856 2854 2852 2850 2847 2844 2842 2839 2837 2834 2831 2829 2825 2822 2819 2816 2813 2810 2808 2806 2805 2804 2804 2805 2806 2807 2808 2810 2811 2812 2813 2814 2814 2815 2816 2817 2817 2817 2817 2817 2816 2816 2815 2815 2814 2813 2812
2919 2917 2916 2914 2913 2911 2909 2907 2906 2904 2902 2900 2898 2897 2895 2893 2891 2889 2888 2886 2884 2882 2880 2879 2877 2875 2873 2871 2870 2868 2866 2864 2862 2860 2857 2855 2853 2851 2848 2846 2844 2841 2839 2836 2834 2831 2828 2825 2822 2819 2816 2812 2809 2806 2803 2800 2797 2796 2794 2794 2794 2795 2797 2798 2800 2802 2803 2805 2807 2808 2809 2810 2811 2812 2812 2812 2812 2812 2812 2811 2810 2810 2810 2809 2807
2913 2912 2910 2908 2907 2905 2903 2901 2899 2898 2896 2894 2892 2891 2889 2887 2885 2883 2881 2879 2878 2876 2874 2872 2871 2869 2867 2865 2863 2861 2859 2857 2855 2852 2850 2848 2846 2844 2841 2839 2837 2834 2832 2829 2826 2823 2820 2817 2814 2811 2807 2804 2800 2797 2793 2790 2788 2786 2785 2785 2786 2787 2789 2790 2792 2795 2797 2799 2801 2802 2804 2805 2806 2807 2807 2807 2807 2807 2807 2807 2806 2806 2805 2804 2804
2907 2906 2904 2903 2901 2899 2897 2895 2894 2892 2890 2888 2887 2885 2883 2881 2879 2878 2876 2874 2872 2870 2868 2866 2864 2862 2860 2858 2856 2854 2852 2850 2848 2845 2843 2841 2839 2837 2835 2832 2830 2828 2825 2823 2820 2817 2814 2810 2807 2804 2800 2796 2793 2789 2786 2783 2781 2779 2778 2778 2779 2780 2782 2784 2786 2789 2792 2794 2795 2797 2799 2801 2802 2802 2802 2803 2803 2803 2803 2802 2802 2802 2801 2800 2800
2901 2900 2898 2897 2895 2893 2891 2890 2888 2886 2884 2883 2881 2879 2877 2875 2874 2872 2870 2868 2866 2864 2862 2860 2858 2855 2853 2851 2849 2847 2845 2843 2841 2839 2837 2835 2833 2831 2829 2827 2825 2822 2820 2817 2814 2811 2808 2805 2801 2798 2794 2791 2787 2784 2781 2778 2776 2774 2774 2773 2774 2775 2777 2779 2782 2785 2787 2789 2791 2793 2795 2796 2797 2798 2798 2798 2798 2798 2799 2798 2798 2798 2797 2797 2796
2895 2894 2892 2891 2889 2887 2886 2884 2882 2880 2879 2877 2875 2873 2871 2870 2868 2866 2864 2862 2859 2857 2855 2853 2851 2849 2847 2844 2842 2840 2838 2836 2834 2833 2831 2829 2827 2825 2823 2821 2820 2817 2815 2813 2810 2807 2804 2800 2797 2794 2791 2787 2784 2781 2778 2776 2774 2772 2772 2771 2772 2773 2775 2777 2779 2782 2784 2785 2787 2789 2791 2792 2793 2793 2794 2794 2794 2794 2795 2794 2794 2794 2793 2793 2792
2889 2888 2887 2885 2883 2882 2880 2878 2876 2875 2873 2871 2869 2867 2865 2863 2861 2860 2858 2855 2853 2851 2849 2847 2845 2843 2840 2838 2836 2834 2832 2831 2829 2827 2825 2824 2822 2820 2819 2817 2815 2813 2811 2808 2806 2803 2800 2797 2794 2792 2789 2785 2783 2780 2777 2775 2773 2772 2771 2771 2772 2773 2774 2776 2778 2779 2781 2783 2784 2786 2787 2788 2789 2790 2790 2790 2791 2791 2791 2790 2790 2790 2790 2789 2789
2884 2883 2881 2879 2878 2876 2874 2872 2870 2869 2867 2865 2863 2861 2859 2857 2855 2853 2851 2849 2847 2845 2843 2841 2839 2837 2835 2833 2831 2829 2827 2826 2824 2822 2821 2819 2818 2816 2815 2813 2811 2809 2807 2805 2803 2800 2798 2795 2793 2790 2787 2784 2782 2779 2777 2775 2774 2772 2772 2772 2772 2772 2773 2775 2776 2777 2779 2780 2782 2783 2784 2785 2786 2786 2787 2787 2787 2787 2787 2787 2787 2786 2786 2786 2785